| time (UTC) | temp C | wind direction | speed KPH | gust KPH | rain 1hr cm | rain 24hr cm | rain mn cm | humidity % | barometer mb |
| 20260505024504 | 28 | 3 | 3.2 | 3.2 | 0.00 | 0.00 | 0.00 | 59 | 1016.6 |
| 20260505024006 | 29 | 331 | 3.2 | 4.8 | 0.00 | 0.00 | 0.00 | 60 | 1016.6 |
| 20260505023504 | 30 | 290 | 1.6 | 1.6 | 0.00 | 0.00 | 0.00 | 57 | 1016.6 |
| 20260505023006 | 30 | 305 | 1.6 | 1.6 | 0.00 | 0.00 | 0.00 | 59 | 1016.6 |
| 20260505022504 | 29 | 310 | 1.6 | 1.6 | 0.00 | 0.00 | 0.00 | 56 | 1016.9 |
| 20260505022004 | 28 | 296 | 1.6 | 1.6 | 0.00 | 0.00 | 0.00 | 58 | 1016.9 |
| 20260505021504 | 28 | 322 | 1.6 | 1.6 | 0.00 | 0.00 | 0.00 | 59 | 1016.9 |
| 20260505021004 | 27 | 271 | 1.6 | 3.2 | 0.00 | 0.00 | 0.00 | 61 | 1016.9 |
| 20260505020505 | 27 | 232 | 3.2 | 4.8 | 0.00 | 0.00 | 0.00 | 62 | 1016.9 |
| 20260505020004 | 26 | 275 | 0.0 | 0.0 | 0.00 | 0.00 | 0.00 | 64 | 1017.3 |
| 20260505015504 | 27 | 234 | 3.2 | 3.2 | 0.00 | 0.00 | 0.00 | 61 | 1017.3 |
| 20260505015005 | 28 | 270 | 1.6 | 3.2 | 0.00 | 0.00 | 0.00 | 60 | 1017.3 |
| 20260505014506 | 27 | 286 | 3.2 | 3.2 | 0.00 | 0.00 | 0.00 | 62 | 1017.3 |
| 20260505014005 | 27 | 279 | 1.6 | 1.6 | 0.00 | 0.00 | 0.00 | 65 | 1017.3 |
| 20260505013505 | 27 | 295 | 1.6 | 1.6 | 0.00 | 0.00 | 0.00 | 65 | 1017.3 |
| 20260505013004 | 27 | 275 | 0.0 | 0.0 | 0.00 | 0.00 | 0.00 | 66 | 1017.3 |
| 20260505012504 | 26 | 262 | 4.8 | 6.4 | 0.00 | 0.00 | 0.00 | 66 | 1017.6 |
| 20260505012004 | 27 | 291 | 1.6 | 1.6 | 0.00 | 0.00 | 0.00 | 63 | 1017.6 |
| 20260505011504 | 28 | 297 | 0.0 | 1.6 | 0.00 | 0.00 | 0.00 | 65 | 1017.6 |
| 20260505011005 | 27 | 294 | 1.6 | 1.6 | 0.00 | 0.00 | 0.00 | 64 | 1017.9 |
| 20260505010504 | 26 | 266 | 1.6 | 1.6 | 0.00 | 0.00 | 0.00 | 68 | 1017.9 |
| 20260505010005 | 26 | 261 | 0.0 | 0.0 | 0.00 | 0.00 | 0.00 | 69 | 1017.9 |
| 20260505005506 | 26 | 286 | 0.0 | 3.2 | 0.00 | 0.00 | 0.00 | 70 | 1017.9 |
| 20260505005004 | 28 | 274 | 1.6 | 1.6 | 0.00 | 0.00 | 0.00 | 64 | 1017.9 |
| 20260505004504 | 28 | 289 | 0.0 | 1.6 | 0.00 | 0.00 | 0.00 | 66 | 1017.9 |
| 20260505004005 | 26 | 262 | 1.6 | 3.2 | 0.00 | 0.00 | 0.00 | 69 | 1017.9 |
| 20260505003504 | 27 | 288 | 1.6 | 1.6 | 0.00 | 0.00 | 0.00 | 68 | 1018.3 |
| 20260505003005 | 26 | 303 | 0.0 | 0.0 | 0.00 | 0.00 | 0.00 | 71 | 1018.3 |
| 20260505002504 | 25 | 278 | 0.0 | 0.0 | 0.00 | 0.00 | 0.00 | 75 | 1019.0 |
| 20260505002004 | 25 | 285 | 1.6 | 1.6 | 0.00 | 0.00 | 0.00 | 74 | 1019.0 |
| 20260505001504 | 26 | 251 | 1.6 | 1.6 | 0.00 | 0.00 | 0.00 | 70 | 1019.0 |
| 20260505001005 | 25 | 294 | 0.0 | 0.0 | 0.00 | 0.00 | 0.00 | 73 | 1019.0 |
| 20260505000505 | 26 | 255 | 0.0 | 0.0 | 0.00 | 0.00 | 0.00 | 71 | 1019.0 |
| 20260505000005 | 26 | 313 | 1.6 | 1.6 | 0.00 | 0.00 | 0.00 | 72 | 1019.0 |
| 20260504235505 | 27 | 273 | 1.6 | 1.6 | 0.00 | 0.00 | 0.00 | 70 | 1019.0 |
| 20260504235004 | 26 | 277 | 0.0 | 0.0 | 0.00 | 0.00 | 0.00 | 69 | 1019.0 |
| 20260504234505 | 26 | 283 | 1.6 | 1.6 | 0.00 | 0.00 | 0.00 | 75 | 1019.0 |
| 20260504234007 | 26 | 327 | 0.0 | 1.6 | 0.00 | 0.00 | 0.00 | 76 | 1019.0 |
| 20260504233505 | 25 | 296 | 1.6 | 1.6 | 0.00 | 0.00 | 0.00 | 77 | 1019.0 |
| 20260504233004 | 24 | 300 | 3.2 | 3.2 | 0.00 | 0.00 | 0.00 | 77 | 1019.0 |
| 20260504232504 | 23 | 274 | 1.6 | 1.6 | 0.00 | 0.00 | 0.00 | 81 | 1019.3 |
| 20260504232005 | 23 | 296 | 0.0 | 1.6 | 0.00 | 0.00 | 0.00 | 82 | 1019.3 |
| 20260504231505 | 23 | 291 | 0.0 | 1.6 | 0.00 | 0.00 | 0.00 | 84 | 1019.3 |
| 20260504231004 | 23 | 278 | 0.0 | 0.0 | 0.00 | 0.00 | 0.00 | 86 | 1019.3 |
| 20260504230505 | 22 | 296 | 1.6 | 1.6 | 0.00 | 0.00 | 0.00 | 87 | 1019.3 |
| 20260504230005 | 21 | 294 | 1.6 | 1.6 | 0.00 | 0.00 | 0.00 | 90 | 1019.3 |
| 20260504225504 | 20 | 270 | 0.0 | 1.6 | 0.00 | 0.00 | 0.00 | 93 | 1019.3 |
| 20260504225004 | 20 | 267 | 1.6 | 1.6 | 0.00 | 0.00 | 0.00 | 94 | 1019.3 |
| 20260504224504 | 20 | 275 | 0.0 | 0.0 | 0.00 | 0.00 | 0.00 | 98 | 1019.3 |
| 20260504224004 | 19 | 272 | 0.0 | 1.6 | 0.00 | 0.00 | 0.00 | 99 | 1019.3 |
| 20260504223504 | 19 | 265 | 0.0 | 0.0 | 0.00 | 0.00 | 0.00 | 99 | 1019.3 |
| 20260504223006 | 18 | 280 | 0.0 | 1.6 | 0.00 | 0.00 | 0.00 | 99 | 1019.3 |
| 20260504222505 | 18 | 235 | 3.2 | 3.2 | 0.00 | 0.00 | 0.00 | 99 | 1019.3 |
| 20260504222004 | 18 | 272 | 0.0 | 1.6 | 0.00 | 0.00 | 0.00 | 99 | 1019.3 |
| 20260504221504 | 18 | 271 | 0.0 | 1.6 | 0.00 | 0.00 | 0.00 | 99 | 1019.3 |
| 20260504221004 | 18 | 287 | 0.0 | 1.6 | 0.00 | 0.00 | 0.00 | 99 | 1019.3 |
| 20260504220506 | 18 | 270 | 1.6 | 1.6 | 0.00 | 0.00 | 0.00 | 99 | 1019.3 |
| 20260504220004 | 18 | 279 | 0.0 | 0.0 | 0.00 | 0.00 | 0.00 | 99 | 1019.0 |
| 20260504215506 | 18 | 276 | 0.0 | 1.6 | 0.00 | 0.00 | 0.00 | 99 | 1019.0 |
| 20260504215004 | 18 | 268 | 1.6 | 3.2 | 0.00 | 0.00 | 0.00 | 99 | 1019.0 |
| 20260504214504 | 18 | 274 | 0.0 | 0.0 | 0.00 | 0.00 | 0.00 | 99 | 1018.3 |
| 20260504214004 | 17 | 265 | 1.6 | 1.6 | 0.00 | 0.00 | 0.00 | 99 | 1018.3 |
| 20260504213505 | 17 | 268 | 0.0 | 0.0 | 0.00 | 0.00 | 0.00 | 99 | 1018.3 |
| 20260504213004 | 17 | 256 | 0.0 | 0.0 | 0.00 | 0.00 | 0.00 | 99 | 1018.3 |
| 20260504212509 | 17 | 258 | 0.0 | 0.0 | 0.00 | 0.00 | 0.00 | 99 | 1019.0 |
| 20260504212007 | 17 | 258 | 0.0 | 0.0 | 0.00 | 0.00 | 0.00 | 99 | 1019.0 |
| 20260504211504 | 17 | 258 | 0.0 | 1.6 | 0.00 | 0.00 | 0.00 | 99 | 1019.0 |
| 20260504211005 | 17 | 258 | 0.0 | 0.0 | 0.00 | 0.00 | 0.00 | 99 | 1019.0 |
| 20260504210504 | 17 | 258 | 0.0 | 0.0 | 0.00 | 0.00 | 0.00 | 99 | 1019.0 |
| 20260504210004 | 17 | 258 | 0.0 | 0.0 | 0.00 | 0.00 | 0.00 | 99 | 1018.3 |
| 20260504205505 | 16 | 258 | 0.0 | 0.0 | 0.00 | 0.00 | 0.00 | 99 | 1018.3 |
| 20260504205004 | 17 | 258 | 0.0 | 0.0 | 0.00 | 0.00 | 0.00 | 99 | 1018.3 |
| 20260504204504 | 17 | 258 | 0.0 | 0.0 | 0.00 | 0.00 | 0.00 | 99 | 1018.3 |
| 20260504204004 | 16 | 258 | 0.0 | 0.0 | 0.00 | 0.00 | 0.00 | 99 | 1018.3 |
| 20260504203505 | 16 | 258 | 0.0 | 0.0 | 0.00 | 0.00 | 0.00 | 99 | 1017.9 |
| 20260504203004 | 16 | 258 | 0.0 | 0.0 | 0.00 | 0.00 | 0.00 | 99 | 1017.9 |
| 20260504202504 | 16 | 258 | 0.0 | 0.0 | 0.00 | 0.00 | 0.00 | 99 | 1017.9 |
| 20260504202005 | 16 | 259 | 0.0 | 0.0 | 0.00 | 0.00 | 0.00 | 99 | 1017.9 |
| 20260504201505 | 16 | 259 | 0.0 | 0.0 | 0.00 | 0.00 | 0.00 | 99 | 1017.9 |
| 20260504201006 | 16 | 259 | 1.6 | 1.6 | 0.00 | 0.00 | 0.00 | 99 | 1017.9 |
| 20260504200504 | 16 | 259 | 1.6 | 1.6 | 0.00 | 0.00 | 0.00 | 99 | 1017.9 |
| 20260504200004 | 16 | 259 | 0.0 | 0.0 | 0.00 | 0.00 | 0.00 | 99 | 1017.6 |
| 20260504195504 | 17 | 259 | 0.0 | 1.6 | 0.00 | 0.00 | 0.00 | 99 | 1017.6 |
| 20260504195005 | 17 | 259 | 0.0 | 0.0 | 0.00 | 0.00 | 0.00 | 99 | 1017.6 |
| 20260504194504 | 17 | 259 | 0.0 | 0.0 | 0.00 | 0.00 | 0.00 | 99 | 1017.6 |
| 20260504194004 | 17 | 259 | 0.0 | 0.0 | 0.00 | 0.00 | 0.00 | 99 | 1017.6 |
| 20260504193505 | 17 | 259 | 0.0 | 0.0 | 0.00 | 0.00 | 0.00 | 99 | 1017.3 |
| 20260504193004 | 17 | 259 | 0.0 | 0.0 | 0.00 | 0.00 | 0.00 | 99 | 1017.3 |
| 20260504192505 | 17 | 259 | 0.0 | 0.0 | 0.00 | 0.00 | 0.00 | 99 | 1017.3 |
| 20260504192004 | 17 | 259 | 0.0 | 0.0 | 0.00 | 0.00 | 0.00 | 99 | 1017.3 |
| 20260504191504 | 17 | 259 | 3.2 | 3.2 | 0.00 | 0.00 | 0.00 | 99 | 1017.3 |
| 20260504191008 | 16 | 259 | 0.0 | 0.0 | 0.00 | 0.00 | 0.00 | 99 | 1017.3 |
| 20260504190505 | 16 | 259 | 0.0 | 0.0 | 0.00 | 0.00 | 0.00 | 99 | 1017.3 |
| 20260504190004 | 16 | 259 | 0.0 | 0.0 | 0.00 | 0.00 | 0.00 | 99 | 1017.3 |
| 20260504185505 | 16 | 259 | 0.0 | 0.0 | 0.00 | 0.00 | 0.00 | 99 | 1017.3 |
| 20260504185004 | 16 | 259 | 0.0 | 0.0 | 0.00 | 0.00 | 0.00 | 99 | 1017.3 |
| 20260504184505 | 16 | 259 | 0.0 | 0.0 | 0.00 | 0.00 | 0.00 | 99 | 1017.3 |
| 20260504184005 | 16 | 259 | 0.0 | 0.0 | 0.00 | 0.00 | 0.00 | 99 | 1017.3 |
| 20260504183505 | 16 | 259 | 0.0 | 0.0 | 0.00 | 0.00 | 0.00 | 99 | 1017.3 |
| 20260504183005 | 16 | 259 | 0.0 | 0.0 | 0.00 | 0.00 | 0.00 | 99 | 1017.3 |
| 20260504182505 | 16 | 259 | 0.0 | 0.0 | 0.00 | 0.00 | 0.00 | 99 | 1017.3 |
| 20260504182005 | 16 | 259 | 0.0 | 0.0 | 0.13 | 0.00 | 0.00 | 99 | 1017.3 |
| 20260504181508 | 16 | 259 | 0.0 | 0.0 | 0.13 | 0.00 | 0.00 | 99 | 1017.3 |
| 20260504181005 | 16 | 259 | 0.0 | 0.0 | 0.00 | 0.00 | 0.00 | 99 | 1017.3 |
| 20260504180504 | 16 | 259 | 0.0 | 0.0 | 0.00 | 0.00 | 0.00 | 99 | 1017.3 |
| 20260504180005 | 17 | 259 | 0.0 | 0.0 | 0.00 | 0.00 | 0.00 | 99 | 1017.3 |
| 20260504175504 | 17 | 259 | 0.0 | 0.0 | 0.00 | 0.00 | 0.00 | 99 | 1017.3 |
| 20260504175004 | 17 | 259 | 0.0 | 0.0 | 0.00 | 0.00 | 0.00 | 99 | 1017.3 |
| 20260504174505 | 17 | 259 | 0.0 | 0.0 | 0.00 | 0.00 | 0.00 | 99 | 1017.3 |
| 20260504174004 | 17 | 259 | 1.6 | 1.6 | 0.00 | 0.00 | 0.00 | 99 | 1017.3 |
| 20260504173504 | 17 | 259 | 0.0 | 0.0 | 0.00 | 0.00 | 0.00 | 99 | 1017.3 |
| 20260504173005 | 17 | 259 | 0.0 | 0.0 | 0.00 | 0.00 | 0.00 | 99 | 1017.3 |
| 20260504172505 | 17 | 259 | 0.0 | 1.6 | 0.00 | 0.00 | 0.00 | 99 | 1017.3 |
| 20260504172004 | 17 | 259 | 0.0 | 0.0 | 0.00 | 0.00 | 0.00 | 99 | 1017.3 |
| 20260504171505 | 17 | 259 | 0.0 | 0.0 | 0.00 | 0.00 | 0.00 | 99 | 1017.3 |
| 20260504171005 | 17 | 259 | 0.0 | 0.0 | 0.00 | 0.00 | 0.00 | 99 | 1017.3 |
| 20260504170504 | 17 | 259 | 0.0 | 0.0 | 0.00 | 0.00 | 0.00 | 99 | 1017.3 |
| 20260504151005 | 17 | 258 | 0.0 | 0.0 | 0.00 | 0.00 | 0.00 | 99 | 1017.6 |
| 20260504150505 | 17 | 258 | 0.0 | 0.0 | 0.00 | 0.00 | 0.00 | 99 | 1017.6 |
| 20260504141005 | 18 | 259 | 0.0 | 0.0 | 0.00 | 0.00 | 0.00 | 99 | 1017.9 |
| 20260504140504 | 18 | 259 | 0.0 | 0.0 | 0.00 | 0.00 | 0.00 | 99 | 1017.9 |
| 20260504130505 | 18 | 260 | 0.0 | 0.0 | 0.00 | 0.00 | 0.00 | 99 | 1019.0 |
| 20260504110505 | 18 | 268 | 0.0 | 1.6 | 0.00 | 0.00 | 0.00 | 99 | 1019.3 |
| 20260504100504 | 19 | 270 | 1.6 | 1.6 | 0.00 | 0.00 | 0.00 | 99 | 1019.3 |
| 20260504082005 | 21 | 313 | 1.6 | 1.6 | 0.00 | 0.00 | 0.00 | 88 | 1017.9 |
| 20260504081504 | 21 | 325 | 1.6 | 1.6 | 0.00 | 0.00 | 0.00 | 87 | 1017.9 |
| 20260504081005 | 21 | 301 | 0.0 | 0.0 | 0.00 | 0.00 | 0.00 | 86 | 1017.6 |
| 20260504080505 | 21 | 322 | 0.0 | 0.0 | 0.00 | 0.00 | 0.00 | 86 | 1017.6 |
| 20260504050504 | 25 | 188 | 8.0 | 9.7 | 0.00 | 0.00 | 0.00 | 69 | 1016.9 |
| 20260504050004 | 25 | 167 | 4.8 | 8.0 | 0.00 | 0.00 | 0.00 | 68 | 1016.9 |
| 20260504045504 | 25 | 177 | 3.2 | 3.2 | 0.00 | 0.00 | 0.00 | 68 | 1016.9 |
| 20260504045005 | 25 | 280 | 3.2 | 4.8 | 0.00 | 0.00 | 0.00 | 67 | 1016.9 |
| 20260504044504 | 26 | 162 | 1.6 | 3.2 | 0.00 | 0.00 | 0.00 | 66 | 1016.9 |
| 20260504044004 | 26 | 323 | 3.2 | 4.8 | 0.00 | 0.00 | 0.00 | 64 | 1016.9 |
| 20260504043504 | 27 | 334 | 6.4 | 9.7 | 0.00 | 0.00 | 0.00 | 61 | 1016.6 |
| 20260504043006 | 27 | 346 | 4.8 | 8.0 | 0.00 | 0.00 | 0.00 | 60 | 1016.6 |
| 20260504042505 | 27 | 349 | 3.2 | 4.8 | 0.00 | 0.00 | 0.00 | 61 | 1016.9 |
| 20260504042007 | 27 | 243 | 1.6 | 1.6 | 0.00 | 0.00 | 0.00 | 61 | 1016.9 |
| 20260504041504 | 27 | 250 | 1.6 | 1.6 | 0.00 | 0.00 | 0.00 | 59 | 1016.9 |
| 20260504041004 | 27 | 150 | 3.2 | 4.8 | 0.00 | 0.00 | 0.00 | 58 | 1016.9 |
| 20260504040504 | 27 | 177 | 6.4 | 8.0 | 0.00 | 0.00 | 0.00 | 61 | 1016.9 |
| 20260504040004 | 26 | 312 | 1.6 | 1.6 | 0.00 | 0.00 | 0.00 | 64 | 1017.3 |
| 20260504035504 | 25 | 325 | 0.0 | 1.6 | 0.00 | 0.00 | 0.00 | 65 | 1017.3 |
| 20260504035004 | 25 | 270 | 1.6 | 3.2 | 0.00 | 0.00 | 0.00 | 64 | 1017.3 |
| 20260504034505 | 25 | 322 | 1.6 | 3.2 | 0.00 | 0.00 | 0.00 | 63 | 1017.3 |
| 20260504034005 | 26 | 281 | 1.6 | 1.6 | 0.00 | 0.00 | 0.00 | 62 | 1017.3 |
| 20260504033504 | 26 | 191 | 3.2 | 3.2 | 0.00 | 0.00 | 0.00 | 60 | 1017.3 |
| 20260504033004 | 27 | 262 | 1.6 | 1.6 | 0.00 | 0.00 | 0.00 | 60 | 1017.3 |
| 20260504032504 | 26 | 279 | 0.0 | 1.6 | 0.00 | 0.00 | 0.00 | 61 | 1017.3 |
| 20260504032005 | 26 | 305 | 0.0 | 0.0 | 0.00 | 0.00 | 0.00 | 63 | 1017.3 |
| 20260504031510 | 26 | 348 | 8.0 | 8.0 | 0.00 | 0.00 | 0.00 | 63 | 1017.3 |
| 20260504031004 | 27 | 331 | 3.2 | 4.8 | 0.00 | 0.00 | 0.00 | 60 | 1017.3 |
| 20260504030504 | 27 | 312 | 1.6 | 4.8 | 0.00 | 0.00 | 0.00 | 60 | 1017.3 |
| 20260504030005 | 26 | 203 | 3.2 | 3.2 | 0.00 | 0.00 | 0.00 | 62 | 1017.3 |
| 20260504025504 | 26 | 292 | 0.0 | 1.6 | 0.00 | 0.00 | 0.00 | 64 | 1017.3 |
| 20260504025004 | 26 | 315 | 3.2 | 3.2 | 0.00 | 0.00 | 0.00 | 65 | 1017.3 |